Weather History for Lima, OH

Change the Weather History Date:

Thursday, February 14, 2013

  Actual Average (KFDY) Record (KFDY)
Temperature  
Mean Temperature 38 °F -  
Max Temperature 45 °F 34 °F 62 °F (1950)
Min Temperature 32 °F 20 °F 1 °F (1971)
Degree Days  
Heating Degree Days 26    
Moisture  
Dew Point 30 °F    
Average Humidity 76    
Maximum Humidity 89    
Minimum Humidity 65    
Precipitation  
Precipitation 0.00 in - - ()
Sea Level Pressure  
Sea Level Pressure 29.84 in    
Wind  
Wind Speed 13 mph (SW)    
Max Wind Speed 26 mph    
Max Gust Speed 40 mph    
Visibility 8 miles    
Events      
Averages and records for this station are not official NWS values.
T = Trace of Precipitation, MM = Missing Value Source: NWS Daily Summary

Daily Weather History Graph

Daily Weather History Graph

Search for Another Location

Airport:

Trip Planner

Search our weather history database for the weather conditions in past years. The results will help you decide how hot, cold, wet, or windy it might be!

Date:

Astronomy

Feb. 14, 2013 Rise Set
Actual Time 7:30 AM EST 6:10 PM EST
Civil Twilight 7:02 AM EST 6:38 PM EST
Nautical Twilight 6:30 AM EST 7:10 PM EST
Astronomical Twilight 5:59 AM EST 7:42 PM EST
Moon 9:30 AM EST (2/14) 11:14 PM EST (2/14)
Length of Visible Light 11h 35m
Length of Day
10h 39m
Waxing Crescent, 21% of the Moon is Illuminated
Feb 14
Waxing Crescent
Feb 17
First Quarter
Feb 25
Full
Mar 4
Last Quarter
Mar 11
New

Hourly Weather History & Observations

Time (EST) Temp. Windchill Dew Point Humidity Pressure Visibility Wind Dir Wind Speed Gust Speed Precip Events Conditions
12:53 AM 34.0 °F 26.6 °F 27.0 °F 75% 29.84 in 9.0 mi SSW 9.2 mph - N/A   Overcast
1:53 AM 34.0 °F 26.0 °F 27.0 °F 75% 29.84 in 8.0 mi SSW 10.4 mph - N/A   Overcast
2:53 AM 33.1 °F 23.9 °F 27.0 °F 78% 29.84 in 7.0 mi SSW 12.7 mph - N/A   Clear
3:53 AM 32.0 °F 23.6 °F 27.0 °F 82% 29.83 in 7.0 mi SSW 10.4 mph - N/A   Clear
4:53 AM 32.0 °F 23.6 °F 28.0 °F 85% 29.84 in 6.0 mi SSW 10.4 mph - N/A   Partly Cloudy
5:40 AM 33.8 °F 25.3 °F 28.4 °F 81% 29.81 in 6.0 mi SSW 11.5 mph - N/A   Overcast
5:53 AM 33.1 °F 24.4 °F 28.9 °F 85% 29.83 in 5.0 mi SSW 11.5 mph - N/A   Overcast
6:53 AM 34.0 °F 25.5 °F 30.0 °F 85% 29.84 in 4.0 mi SSW 11.5 mph 17.3 mph N/A   Overcast
7:53 AM 34.0 °F 26.6 °F 30.9 °F 89% 29.85 in 3.0 mi South 9.2 mph - N/A   Overcast
8:53 AM 35.1 °F 27.4 °F 30.9 °F 85% 29.85 in 3.0 mi SSW 10.4 mph - N/A   Overcast
9:53 AM 35.1 °F 25.5 °F 30.9 °F 85% 29.84 in 4.0 mi South 15.0 mph - N/A   Overcast
10:53 AM 37.0 °F 27.0 °F 32.0 °F 82% 29.82 in 5.0 mi South 18.4 mph 24.2 mph N/A   Haze
11:33 AM 37.4 °F 28.5 °F 32.0 °F 81% 29.79 in 6.0 mi South 15.0 mph 25.3 mph N/A   Haze
11:53 AM 37.9 °F 27.9 °F 32.0 °F 79% 29.81 in 6.0 mi South 19.6 mph - N/A   Haze
12:53 PM 39.9 °F 32.5 °F 33.1 °F 77% 29.80 in 7.0 mi SSW 12.7 mph 26.5 mph N/A   Mostly Cloudy
1:06 PM 39.2 °F 32.0 °F 33.8 °F 81% 29.77 in 7.0 mi SSW 11.5 mph 20.7 mph N/A   Overcast
1:53 PM 41.0 °F 32.2 °F 33.1 °F 73% 29.77 in 8.0 mi SSW 18.4 mph 24.2 mph N/A   Mostly Cloudy
2:53 PM 44.1 °F 38.1 °F 35.1 °F 71% 29.76 in 9.0 mi SSW 11.5 mph 20.7 mph N/A   Overcast
3:53 PM 45.0 °F 37.9 °F 34.0 °F 65% 29.77 in 10.0 mi SW 16.1 mph 26.5 mph N/A   Overcast
4:53 PM 45.0 °F 37.9 °F 35.1 °F 68% 29.79 in 10.0 mi WSW 16.1 mph 27.6 mph N/A   Overcast
5:42 PM 42.8 °F 33.8 °F 33.8 °F 70% 29.81 in 10.0 mi West 21.9 mph 28.8 mph N/A   Mostly Cloudy
5:53 PM 41.0 °F 32.2 °F 33.1 °F 73% 29.84 in 10.0 mi West 18.4 mph 29.9 mph N/A   Mostly Cloudy
6:53 PM 37.9 °F 26.3 °F 28.9 °F 70% 29.89 in 10.0 mi West 26.5 mph 40.3 mph N/A   Overcast
7:53 PM 37.9 °F 27.9 °F 28.0 °F 68% 29.92 in 10.0 mi West 19.6 mph 33.4 mph N/A   Overcast
8:53 PM 37.0 °F 26.4 °F 27.0 °F 67% 29.94 in 10.0 mi West 20.7 mph 28.8 mph N/A   Overcast
9:53 PM 37.0 °F 27.0 °F 27.0 °F 67% 29.95 in 10.0 mi West 18.4 mph - N/A   Overcast
10:53 PM 36.0 °F 27.1 °F 27.0 °F 70% 29.94 in 10.0 mi West 13.8 mph - N/A   Overcast
11:53 PM 36.0 °F 28.0 °F 28.0 °F 73% 29.95 in 10.0 mi WSW 11.5 mph - N/A   Overcast